COSMOS 1275 DEB, 12676

Orbit data source: Space-Track

COSMOS 1275 DEB, 12676 is space debris in LEO originally from a launch on Thu, 04 Jun 1981 UTC launched from the Plesetsk Missile And Space Complex (PKMTR). Debris objects in space refer to the collection of defunct objects orbiting the Earth. Examples of debris include non-operational satellites, rocket bodies, and fragments generated from explosions, collisions, or faulty payload assembly.

Loading next visibility...
COSMOS 1275 DEB details
Identifier
12676, 1981-053AG
Orbit
LEO
Last TLE update10 hours ago
Origin
Flag of CISVMF (CIS)
ManufacturerUnknown
MissionSpacecraft
Bus & MotorUnknown
MassUnknown
Launch date (UTC)
1981-06-04 (44 years ago)
Launch vehicleUnknown
Launch site
Plesetsk Missile And Space Complex (PKMTR)
Object type
Payload
Rocket body
Debris
Shape & HBRUnknown
Radar Cross SectionMedium (>0.1 m² and <1 m²)

Expand to show TLE details & history

TLE from 10 hours ago
0 COSMOS 1275 DEB
1 12676U 81053AG  25025.43014269  .00001213  00000-0  10299-2 0  9992
2 12676  82.9464 144.0131 0045465 105.6638 322.6395 13.86179249190363
Epoch: 2025-01-25T10:19Z
Definitive object data (Epoch: 2025-01-25T10:19:24.328Z)
Latitude67.01896°
Longitude-118.94495°
Altitude927.246 km
Speed7.408 km/s
True Right ascension10h 43m 32s
True Declination66° 53' 53"
Sunlit
Object was in full shadow at TLE epoch
Visualization TLE readout
Latitude-81.05741°
Longitude172.41131°
Altitude1,003.171 km
Speed7.333 km/s
Apparent Right ascension08h 45m 48s
Apparent Declination-63° 10' 15"
Sunlit
Object is in daylight
Visualization observer readout
Local Sidereal Time21:19:58
Azimuth170.442° S
Elevation-66.195°
Doppler factor1
Orbital elements
Apogee altitude972.452 km
Perigee altitude905.916 km
Semi-major axis7,317.321 km
Eccentricity0.0045465
Inclination82.9464°
RAAN144.0131°
Arg. of periapsis105.6638°
True anomaly322.32192°
Mean anomaly322.6395°
Eccentric anomaly322.48085°
Mean motion3.46749 °/min
BSTAR0.0010299
Orbital period103.82 mins
Loading maneuver chart data...
Loading historical data...
Loading historical data...
Loading historical data...
Loading historical data...
Loading historical data...
Loading historical data...
Loading historical data...

COSMOS 1275 DEB Visibility forecast

Observer location: undefined°, undefined

Span
Click to sort rows by Start time (UTC) header in descending order
Start Az.
Max El. time (UTC)
Max El. Az.
Max El.
End time (UTC)
End Az.
7 mins2025-01-25 20:59:56.634Z318.172° NNW2025-01-25 21:03:56.634Z270.926° WNW19.898°2025-01-25 21:06:56.634Z235.996° WSW
10 mins2025-01-26 08:37:56.634Z192.457° SSW2025-01-26 08:42:56.634Z299.114° NW44.128°2025-01-26 08:47:56.634Z3.239° NNE
10 mins2025-01-26 19:29:56.634Z357.026° N2025-01-26 19:34:56.634Z103.027° ESE44.207°2025-01-26 19:39:56.634Z168.346° S
|